EW3721 Weather Reports


Display with metric or nautical units.
time (UTC)temp
F
wind
direction
speed
MPH
gust
MPH
rain 1hr
in
rain 24hr
in
rain mn
in
humidity
%
barometer
mb
20260903113105 68 215 0.0 1.0 0.00 0.48 0.48 97 1015.8
20260903112605 68 215 0.0 2.0 0.00 0.48 0.48 97 1015.7
20260903112105 68 215 0.0 1.0 0.00 0.48 0.48 97 1015.8
20260903111605 67 215 0.0 2.0 0.00 0.48 0.48 97 1015.6
20260903110605 67 215 1.0 2.0 0.00 0.48 0.48 97 1015.6
20260903110105 67 215 0.0 1.0 0.00 0.48 0.48 97 1015.6
20260903105605 67 215 0.0 2.0 0.00 0.48 0.48 97 1015.6
20260903105105 67 215 0.0 2.0 0.00 0.48 0.48 97 1015.5
20260903104605 67 215 0.0 1.0 0.00 0.48 0.48 97 1015.4
20260903104105 67 215 0.0 0.0 0.00 0.48 0.48 97 1015.4
20260903103605 67 215 0.0 0.0 0.00 0.48 0.48 97 1015.3
20260903103105 67 215 0.0 0.0 0.00 0.48 0.48 97 1015.3
20260903102105 67 215 1.0 2.0 0.00 0.48 0.48 97 1015.5
20260903101605 67 215 0.0 0.0 0.00 0.48 0.48 97 1015.4
20260903101105 67 215 0.0 1.0 0.00 0.48 0.48 97 1015.3
20260903100605 67 215 0.0 0.0 0.00 0.48 0.48 97 1015.0
20260903100105 67 215 0.0 0.0 0.00 0.48 0.48 97 1014.8
20260903095605 67 215 0.0 1.0 0.00 0.48 0.48 97 1014.9
20260903095105 67 215 0.0 1.0 0.00 0.48 0.48 97 1015.0
20260903094605 67 215 0.0 2.0 0.00 0.48 0.48 97 1015.0
20260903094105 67 215 0.0 1.0 0.00 0.48 0.48 96 1014.8
20260903093105 67 215 0.0 1.0 0.00 0.48 0.48 96 1014.8
20260903092605 67 215 0.0 0.0 0.00 0.48 0.48 96 1014.8
20260903092105 67 215 0.0 0.0 0.00 0.48 0.48 96 1015.0
20260903091605 67 215 0.0 0.0 0.00 0.48 0.48 96 1015.0
20260903091105 67 215 0.0 0.0 0.00 0.48 0.48 96 1015.1
20260903090605 67 215 0.0 0.0 0.00 0.48 0.48 96 1015.0
20260903085605 67 215 0.0 1.0 0.00 0.48 0.48 96 1015.2
20260903085105 67 215 1.0 1.0 0.00 0.48 0.48 96 1015.1
20260903084605 67 215 1.0 2.0 0.00 0.48 0.48 96 1015.1
20260903084105 67 215 0.0 0.0 0.00 0.48 0.48 96 1015.1
20260903083106 67 215 0.0 0.0 0.00 0.48 0.48 96 1015.3
20260903082605 67 215 0.0 0.0 0.00 0.48 0.48 96 1015.4
20260903082105 67 215 1.0 1.0 0.01 0.48 0.48 96 1015.4
20260903081605 67 215 0.0 1.0 0.01 0.48 0.48 96 1015.5
20260903081105 67 215 0.0 0.0 0.01 0.48 0.48 96 1015.5
20260903080605 67 215 0.0 0.0 0.01 0.48 0.48 96 1015.6
20260903080106 67 215 0.0 0.0 0.01 0.48 0.48 96 1015.6
20260903075606 66 215 0.0 1.0 0.01 0.48 0.48 96 1015.7
20260903075105 66 215 0.0 0.0 0.02 0.48 0.48 96 1015.7
20260903074606 66 215 0.0 0.0 0.02 0.48 0.48 96 1015.8
20260903074105 66 215 0.0 0.0 0.02 0.48 0.48 96 1015.8
20260903073604 66 215 0.0 0.0 0.02 0.48 0.48 96 1016.0
20260903073105 66 215 0.0 0.0 0.02 0.48 0.48 96 1016.0
20260903072605 66 215 0.0 0.0 0.02 0.48 0.48 96 1016.1
20260903071606 66 215 1.0 2.0 0.03 0.47 0.47 96 1016.2
20260903071105 66 215 0.0 0.0 0.04 0.47 0.47 96 1016.0
20260903070605 66 215 0.0 1.0 0.07 0.47 0.47 96 1016.0
20260903070105 66 215 0.0 1.0 0.16 0.47 0.47 96 1016.1
20260903065605 66 215 0.0 1.0 0.28 0.47 0.47 96 1016.2
20260903065105 66 215 0.0 2.0 0.40 0.46 0.46 96 1016.0
20260903064605 66 215 1.0 2.0 0.44 0.46 0.46 95 1015.9
20260903064105 66 215 1.0 2.0 0.45 0.46 0.46 95 1015.8
20260903063605 66 215 0.0 1.0 0.45 0.46 0.46 95 1016.0
20260903063105 66 215 0.0 2.0 0.46 0.46 0.46 95 1016.3
20260903062605 66 215 1.0 2.0 0.46 0.46 0.46 95 1016.3
20260903062105 66 215 0.0 2.0 0.45 0.45 0.45 95 1016.2
20260903061606 66 184 0.0 2.0 0.44 0.44 0.44 95 1016.4
20260903061105 66 184 1.0 2.0 0.43 0.43 0.43 95 1016.7
20260903060105 66 184 1.0 2.0 0.31 0.31 0.31 95 1017.6
20260903055605 66 184 1.0 2.0 0.19 0.19 0.19 94 1017.7
20260903055105 66 184 1.0 2.0 0.06 0.06 0.06 94 1017.7
20260903054105 66 182 0.0 0.0 0.01 0.01 0.01 94 1017.6
20260903053605 66 182 0.0 2.0 0.01 0.01 0.01 94 1017.7
20260903053105 66 182 0.0 0.0 0.00 0.00 0.00 93 1017.7
20260903052605 66 182 0.0 0.0 0.00 0.00 0.00 93 1017.8
20260903052105 66 182 0.0 0.0 0.00 0.00 0.00 93 1017.9
20260903051616 66 182 0.0 0.0 0.00 0.00 0.00 93 1017.9
20260903051105 66 182 0.0 0.0 0.00 0.00 0.00 93 1017.9
20260903050605 66 182 0.0 0.0 0.00 0.00 0.00 93 1018.0
20260903050105 66 182 0.0 0.0 0.00 0.00 0.00 92 1018.1
20260903045605 66 182 0.0 0.0 0.00 0.00 0.00 92 1018.1
20260903044605 66 182 0.0 0.0 0.00 0.00 0.00 92 1018.3
20260903044105 66 182 0.0 0.0 0.00 0.00 0.00 92 1018.4
20260903043104 66 182 0.0 0.0 0.00 0.01 0.00 91 1018.3
20260903042605 66 182 0.0 0.0 0.00 0.01 0.00 91 1018.3
20260903042104 66 182 0.0 0.0 0.00 0.01 0.00 91 1018.5
20260903041605 66 182 0.0 0.0 0.00 0.01 0.00 91 1018.6
20260903041106 66 182 0.0 0.0 0.00 0.01 0.00 91 1018.6
20260903040105 66 182 0.0 2.0 0.00 0.01 0.00 91 1018.6
20260903035605 66 182 0.0 1.0 0.00 0.01 0.01 90 1018.4
20260903035105 66 182 0.0 1.0 0.00 0.01 0.01 90 1018.4
20260903034605 66 182 1.0 1.0 0.00 0.01 0.01 90 1018.4
20260903033604 66 182 0.0 1.0 0.00 0.01 0.01 90 1018.3
20260903033104 66 182 0.0 0.0 0.00 0.01 0.01 90 1018.2
20260903032604 66 182 0.0 1.0 0.00 0.01 0.01 90 1018.1
20260903032105 66 182 0.0 0.0 0.00 0.01 0.01 90 1018.3
20260903031605 66 182 0.0 1.0 0.00 0.01 0.01 90 1018.5
20260903031115 66 182 1.0 3.0 0.00 0.01 0.01 89 1018.6
20260903030635 66 183 0.0 0.0 0.00 0.01 0.01 89 1018.6
20260903030105 66 183 0.0 0.0 0.00 0.01 0.01 89 1018.8
20260903025605 66 183 0.0 0.0 0.00 0.01 0.01 89 1019.0
20260903025104 66 183 0.0 1.0 0.00 0.01 0.01 89 1019.2
20260903024604 66 182 0.0 0.0 0.00 0.01 0.01 89 1019.1
20260903024104 66 182 0.0 1.0 0.00 0.01 0.01 88 1019.2
20260903023605 66 182 0.0 1.0 0.00 0.01 0.01 88 1019.2
20260903023105 66 182 0.0 1.0 0.00 0.01 0.01 88 1019.2
20260903022604 67 182 0.0 0.0 0.00 0.01 0.01 87 1019.3
20260903022104 67 182 0.0 0.0 0.00 0.01 0.01 87 1019.4
20260903021605 67 182 0.0 0.0 0.00 0.01 0.01 86 1019.4
20260903021105 67 182 0.0 0.0 0.00 0.01 0.01 86 1019.5
20260903020605 67 182 0.0 0.0 0.00 0.01 0.01 86 1019.6
20260903020104 67 182 0.0 0.0 0.00 0.01 0.01 86 1019.6
20260903015605 67 182 0.0 0.0 0.00 0.01 0.01 85 1019.6
20260903013105 67 185 0.0 3.0 0.00 0.01 0.01 83 1019.5
20260903012605 67 169 0.0 2.0 0.00 0.01 0.01 83 1019.7
20260903012105 67 204 2.0 3.0 0.00 0.01 0.01 83 1019.6
20260903011604 67 164 0.0 3.0 0.00 0.01 0.01 83 1019.7
20260903011105 67 164 1.0 3.0 0.00 0.01 0.01 83 1019.6
20260903010604 67 155 2.0 3.0 0.00 0.01 0.01 83 1019.6
20260903010104 67 188 1.0 5.0 0.00 0.01 0.01 83 1019.7
20260903005605 67 148 1.0 3.0 0.00 0.01 0.01 84 1019.8
20260903004604 67 141 1.0 2.0 0.00 0.01 0.01 84 1019.9
20260903004105 67 138 0.0 2.0 0.00 0.01 0.01 83 1020.0
20260903003605 67 149 1.0 3.0 0.00 0.01 0.01 84 1019.9
20260903003105 68 219 0.0 1.0 0.00 0.01 0.01 84 1019.7
20260903002604 68 219 0.0 2.0 0.00 0.01 0.01 84 1019.7
20260903001604 68 157 0.0 1.0 0.00 0.01 0.01 82 1019.4
20260903001105 68 157 1.0 2.0 0.00 0.01 0.01 82 1019.3
20260903000604 68 157 3.0 3.0 0.00 0.01 0.01 82 1019.3
20260903000104 68 160 1.0 3.0 0.00 0.01 0.01 82 1019.1
20260902235605 68 196 2.0 3.0 0.00 0.01 0.01 82 1019.2
20260902235105 68 147 2.0 5.0 0.00 0.01 0.01 81 1019.3
20260902234604 68 168 2.0 8.0 0.00 0.01 0.01 81 1019.3
20260902234104 68 189 1.0 6.0 0.00 0.01 0.01 82 1019.4
20260902232605 68 180 1.0 3.0 0.00 0.02 0.01 81 1019.9
20260902232105 68 157 1.0 3.0 0.00 0.02 0.01 81 1020.0
20260902231604 69 177 1.0 5.0 0.00 0.02 0.01 81 1019.9
20260902231105 69 158 1.0 3.0 0.00 0.02 0.01 81 1019.9
20260902230605 69 238 0.0 6.0 0.00 0.03 0.01 81 1020.1
20260902230105 69 188 0.0 5.0 0.00 0.03 0.01 81 1020.1
20260902225605 69 187 2.0 5.0 0.00 0.05 0.01 80 1020.2
20260902225104 69 169 2.0 8.0 0.00 0.08 0.01 80 1020.3
20260902224104 69 166 2.0 5.0 0.00 0.20 0.01 79 1020.6
20260902223605 69 176 3.0 6.0 0.00 0.20 0.01 79 1020.5
20260902223104 69 170 3.0 6.0 0.00 0.20 0.01 78 1020.6
20260902222605 70 136 1.0 2.0 0.00 0.20 0.01 79 1020.6
20260902222104 70 136 1.0 3.0 0.00 0.20 0.01 78 1020.6
20260902221605 70 163 2.0 6.0 0.00 0.20 0.01 78 1020.6
20260902221104 70 162 3.0 6.0 0.00 0.20 0.01 79 1020.7
20260902220605 70 159 1.0 3.0 0.00 0.20 0.01 80 1020.6
20260902220104 70 160 1.0 3.0 0.00 0.20 0.01 79 1020.6
20260902215604 70 160 3.0 6.0 0.00 0.20 0.01 78 1020.6
20260902215105 70 184 1.0 3.0 0.00 0.20 0.01 78 1020.6
20260902214604 70 167 2.0 5.0 0.00 0.20 0.01 77 1020.4
20260902214104 70 161 1.0 3.0 0.00 0.20 0.01 77 1020.5
20260902213604 70 172 1.0 8.0 0.00 0.20 0.01 76 1020.4
20260902213104 70 197 1.0 6.0 0.00 0.20 0.01 77 1020.4
20260902212605 70 161 0.0 3.0 0.00 0.20 0.01 77 1020.5
20260902211605 70 178 2.0 5.0 0.00 0.20 0.01 76 1020.4
20260902211104 70 228 1.0 6.0 0.00 0.20 0.01 77 1020.1
20260902210605 71 172 2.0 5.0 0.00 0.20 0.01 77 1020.0
20260902210105 71 167 2.0 5.0 0.00 0.20 0.01 79 1020.2
20260902205604 71 167 1.0 5.0 0.00 0.20 0.01 78 1020.5
20260902205104 71 211 1.0 3.0 0.00 0.20 0.01 77 1020.5
20260902204605 71 146 2.0 7.0 0.00 0.20 0.01 79 1020.3
20260902204104 71 159 1.0 2.0 0.00 0.20 0.01 78 1020.1
20260902202604 71 198 2.0 6.0 0.00 0.20 0.01 78 1020.2
20260902202104 71 156 2.0 5.0 0.00 0.20 0.01 78 1020.3
20260902201604 71 194 1.0 3.0 0.00 0.20 0.01 78 1020.2
20260902201104 71 165 5.0 9.0 0.00 0.20 0.01 78 1020.0
20260902200605 71 205 1.0 7.0 0.00 0.20 0.01 79 1019.9
20260902200105 71 186 0.0 2.0 0.00 0.20 0.01 79 1020.0
20260902195604 71 187 1.0 5.0 0.00 0.20 0.01 78 1020.2
20260902194604 71 168 2.0 7.0 0.00 0.20 0.01 76 1020.4
20260902194104 71 166 0.0 6.0 0.00 0.20 0.01 73 1020.8
20260902193604 71 185 2.0 6.0 0.00 0.20 0.01 72 1021.0
20260902193104 71 181 1.0 3.0 0.00 0.20 0.01 71 1021.1
20260902192104 72 161 3.0 8.0 0.00 0.20 0.01 70 1021.1
20260902191604 72 155 2.0 6.0 0.00 0.20 0.01 69 1021.0
20260902191104 72 177 1.0 3.0 0.00 0.20 0.01 70 1020.7
20260902190604 73 201 1.0 3.0 0.00 0.20 0.01 70 1020.8
20260902190104 73 206 1.0 5.0 0.00 0.20 0.01 69 1020.8
20260902185104 73 189 3.0 5.0 0.00 0.20 0.01 66 1020.7
20260902184604 73 179 1.0 6.0 0.00 0.20 0.01 65 1020.7
20260902184104 74 164 2.0 6.0 0.00 0.20 0.01 65 1020.6
20260902183104 74 173 4.0 8.0 0.00 0.20 0.01 64 1020.5
20260902182604 74 183 2.0 8.0 0.00 0.20 0.01 69 1020.8
20260902182104 74 175 3.0 10.0 0.00 0.20 0.01 66 1020.8
20260902181604 74 173 3.0 7.0 0.00 0.20 0.01 68 1020.9
20260902181104 74 199 1.0 9.0 0.00 0.20 0.01 68 1020.9
20260902180104 74 162 1.0 6.0 0.00 0.21 0.01 65 1021.1
20260902175604 74 162 2.0 8.0 0.00 0.21 0.01 67 1021.1
20260902174605 74 154 1.0 5.0 0.00 0.21 0.01 67 1021.1
20260902174104 74 176 1.0 5.0 0.00 0.21 0.01 65 1021.1
20260902173604 74 164 0.0 3.0 0.00 0.21 0.01 65 1021.2
20260902172604 74 163 5.0 6.0 0.00 0.21 0.01 59 1021.3
20260902172104 74 168 1.0 3.0 0.00 0.21 0.01 61 1021.2
20260902171604 75 220 1.0 5.0 0.00 0.21 0.01 63 1021.1
20260902171104 75 173 1.0 5.0 0.00 0.21 0.01 62 1020.8
20260902170104 75 164 4.0 9.0 0.00 0.21 0.01 66 1020.7
20260902165104 74 174 3.0 7.0 0.00 0.21 0.01 68 1020.8
20260902164604 74 152 2.0 8.0 0.00 0.21 0.01 69 1020.9
20260902164104 74 143 4.0 8.0 0.00 0.21 0.01 69 1021.0
20260902163604 74 160 3.0 5.0 0.00 0.21 0.01 68 1021.1
20260902163104 74 161 3.0 9.0 0.00 0.21 0.01 68 1021.0
20260902162604 74 168 0.0 3.0 0.00 0.21 0.01 71 1021.1
20260902162104 73 165 2.0 5.0 0.00 0.21 0.01 69 1021.0
20260902161604 73 185 3.0 9.0 0.00 0.21 0.01 66 1021.0
20260902161104 74 147 1.0 9.0 0.00 0.21 0.01 68 1021.1
20260902160604 74 177 1.0 6.0 0.00 0.21 0.01 68 1021.0
20260902160104 74 154 2.0 6.0 0.00 0.21 0.01 67 1021.1
20260902155604 74 181 3.0 6.0 0.00 0.21 0.01 68 1021.1
20260902155104 74 175 3.0 7.0 0.00 0.21 0.01 67 1021.2
20260902154604 74 181 0.0 2.0 0.00 0.21 0.01 74 1021.2
20260902154104 74 179 2.0 7.0 0.00 0.21 0.01 73 1021.4
20260902153604 73 254 0.0 2.0 0.00 0.21 0.01 69 1021.4
20260902153104 73 155 1.0 5.0 0.00 0.21 0.01 75 1021.5
20260902152604 72 157 1.0 3.0 0.00 0.21 0.01 77 1021.5
20260902152104 72 166 2.0 5.0 0.00 0.21 0.01 71 1021.5
20260902151604 71 193 1.0 3.0 0.00 0.21 0.01 75 1021.6
20260902151104 71 150 2.0 3.0 0.00 0.21 0.01 74 1021.7
20260902150604 71 178 0.0 3.0 0.00 0.21 0.01 77 1021.5
20260902145604 71 142 0.0 1.0 0.00 0.21 0.01 79 1021.6
20260902145104 70 142 0.0 0.0 0.00 0.21 0.01 82 1021.6
20260902144604 70 142 1.0 2.0 0.00 0.21 0.01 80 1021.6
20260902144104 70 142 0.0 1.0 0.00 0.21 0.01 82 1021.6
20260902143604 69 142 1.0 3.0 0.00 0.21 0.01 79 1021.4
20260902143104 69 142 1.0 2.0 0.00 0.21 0.01 82 1021.5
20260902142605 69 142 0.0 3.0 0.00 0.21 0.01 81 1021.6
20260902142103 69 143 1.0 3.0 0.00 0.21 0.01 82 1021.6
20260902141604 68 144 2.0 3.0 0.00 0.22 0.01 85 1021.6
20260902140604 68 166 2.0 5.0 0.00 0.22 0.01 87 1021.5
20260902140104 67 231 1.0 2.0 0.00 0.22 0.01 86 1021.6
20260902135604 67 188 2.0 3.0 0.00 0.23 0.01 87 1021.5
20260902134603 67 136 1.0 3.0 0.00 0.26 0.01 90 1021.3
20260902132607 66 157 3.0 6.0 0.00 0.29 0.01 92 1021.1
20260902132103 65 167 1.0 3.0 0.00 0.29 0.01 94 1021.2
20260902131104 65 196 2.0 5.0 0.00 0.30 0.01 95 1021.1
20260902130604 65 210 2.0 3.0 0.00 0.30 0.01 95 1021.1
20260902125604 64 146 1.0 3.0 0.00 0.30 0.01 96 1020.9
20260902125104 64 233 1.0 3.0 0.00 0.30 0.01 96 1020.8
20260902124604 64 216 2.0 5.0 0.00 0.30 0.01 96 1020.8
20260902124104 63 143 2.0 5.0 0.00 0.30 0.01 96 1020.6
20260902123604 63 185 2.0 8.0 0.00 0.30 0.01 97 1020.7
20260902123104 63 177 2.0 3.0 0.00 0.30 0.01 96 1020.9
20260902122104 63 231 0.0 3.0 0.00 0.30 0.01 97 1021.1
20260902121604 63 165 1.0 3.0 0.00 0.30 0.01 97 1021.2
20260902121104 63 139 1.0 3.0 0.00 0.30 0.01 97 1021.1
20260902120604 63 244 0.0 2.0 0.00 0.30 0.01 97 1021.1
20260902120104 63 242 0.0 2.0 0.00 0.30 0.01 97 1021.2
20260902115103 62 238 1.0 3.0 0.00 0.30 0.01 97 1021.2
20260902114604 62 238 1.0 2.0 0.00 0.30 0.01 97 1021.3
20260902114104 62 238 1.0 2.0 0.00 0.30 0.01 97 1021.2
20260902113604 62 229 2.0 3.0 0.00 0.30 0.01 97 1021.3